Simultaneous Nadir Overpasses (SNOs) Predictions

Prediction of SNOs between NOAA-19 and METOP-C Satellite Orbit:

Table of predicted SNOs for the next 14.0 days since TLE Epoch: 12/14/2024
Index Date (NOAA-19) Time (NOAA-19) Lat,Lon (NOAA-19) SZA (NOAA-19 ) Date (METOP-C) Time (METOP-C) Lat,Lon (METOP-C) SZA (METOP-C ) Distance(km) Time Diff (sec)
1 12/22/2024 18:16:07 -71.00,-157.79 59.36 12/22/2024 18:17:19 -70.99,-157.75 59.24 2.18 72
2 12/22/2024 19:06:37 69.24, 12.26 122.07 12/22/2024 19:07:28 69.25, 12.24 122.13 1.16 51
3 12/22/2024 19:57:04 -67.86,-178.57 56.86 12/22/2024 19:57:42 -67.88,-178.62 56.82 2.64 38
4 12/22/2024 20:47:43 66.51, -9.70 124.18 12/22/2024 20:47:59 66.52, -9.71 124.20 0.65 16
5 12/22/2024 21:38:10 -65.12, 159.09 54.79 12/22/2024 21:38:13 -65.12, 159.08 54.79 0.77 3
6 12/22/2024 22:28:33 62.84, -31.52 126.86 12/22/2024 22:28:14 62.84, -31.52 126.83 0.35 19
7 12/22/2024 23:19:04 -61.67, 136.75 52.32 12/22/2024 23:18:32 -61.66, 136.77 52.36 1.87 32
8 12/23/2024 00:09:00 57.87, -53.27 130.24 12/23/2024 00:08:06 57.85, -53.25 130.15 2.14 54



Historial Predications of SNOs between NOAA-19 and METOP-C
